Time,TemperatureF,DewpointF,PressureIn,WindDirection,WindDirectionDegrees,WindSpeedMPH,WindSpeedGustMPH,Humidity,HourlyPrecipIn,Conditions,Clouds,dailyrainin,SoftwareType,DateUTC
2013-02-06 00:00:00,51.9,51.9,30.03,WSW,254,6.0,9.0,100,0.00,,---,0.00,VWS V14.00,2013-02-06 05:00:00,
2013-02-06 00:05:00,51.9,51.9,30.03,West,263,7.0,8.0,100,0.00,,---,0.00,VWS V14.00,2013-02-06 05:05:00,
2013-02-06 00:10:00,52.0,52.0,30.03,West,259,2.0,9.0,100,0.00,,---,0.00,VWS V14.00,2013-02-06 05:10:00,
2013-02-06 00:15:00,51.9,51.9,30.03,West,260,3.0,9.0,100,0.00,,---,0.00,VWS V14.00,2013-02-06 05:15:00,
2013-02-06 00:20:00,51.9,51.9,30.03,West,259,7.0,9.0,100,0.00,,---,0.00,VWS V14.00,2013-02-06 05:20:00,
2013-02-06 00:25:00,51.9,51.9,30.03,WSW,256,7.0,9.0,100,0.00,,---,0.00,VWS V14.00,2013-02-06 05:25:00,
2013-02-06 00:30:00,51.9,51.9,30.04,WSW,258,4.0,4.0,100,0.00,,---,0.00,VWS V14.00,2013-02-06 05:30:00,
2013-02-06 00:35:00,51.9,51.9,30.03,WSW,255,3.0,7.0,100,0.00,,---,0.00,VWS V14.00,2013-02-06 05:35:00,
2013-02-06 00:40:00,51.8,51.5,30.04,WSW,252,2.0,7.0,99,0.00,,---,0.00,VWS V14.00,2013-02-06 05:40:00,
2013-02-06 00:45:00,51.7,51.4,30.04,WSW,255,3.0,7.0,99,0.00,,---,0.00,VWS V14.00,2013-02-06 05:45:00,
2013-02-06 00:50:00,51.7,51.7,30.03,WSW,255,4.0,7.0,100,0.00,,---,0.00,VWS V14.00,2013-02-06 05:50:00,
2013-02-06 00:55:00,51.6,51.6,30.04,WSW,249,3.0,7.0,100,0.00,,---,0.00,VWS V14.00,2013-02-06 05:55:00,
2013-02-06 01:00:00,51.5,51.5,30.03,West,261,3.0,3.0,100,0.00,,---,0.00,VWS V14.00,2013-02-06 06:00:00,
2013-02-06 01:05:00,51.5,51.5,30.04,West,266,2.0,4.0,100,0.00,,---,0.00,VWS V14.00,2013-02-06 06:05:00,
2013-02-06 01:10:00,51.4,51.4,30.04,West,261,2.0,4.0,100,0.00,,---,0.00,VWS V14.00,2013-02-06 06:10:00,
2013-02-06 01:15:00,51.3,51.3,30.04,West,259,2.0,4.0,100,0.00,,---,0.00,VWS V14.00,2013-02-06 06:15:00,
2013-02-06 01:20:00,51.2,51.2,30.04,WSW,254,0.0,4.0,100,0.00,,---,0.00,VWS V14.00,2013-02-06 06:20:00,
2013-02-06 01:25:00,51.0,51.0,30.04,WSW,247,2.0,4.0,100,0.00,,---,0.00,VWS V14.00,2013-02-06 06:25:00,
2013-02-06 01:30:00,50.8,50.8,30.04,WSW,238,2.0,4.0,100,0.00,,---,0.00,VWS V14.00,2013-02-06 06:30:00,
2013-02-06 01:35:00,50.7,50.7,30.04,WSW,241,1.0,3.0,100,0.00,,---,0.00,VWS V14.00,2013-02-06 06:35:00,
2013-02-06 01:40:00,50.6,50.6,30.04,WSW,245,1.0,3.0,100,0.00,,---,0.00,VWS V14.00,2013-02-06 06:40:00,
2013-02-06 01:45:00,50.6,50.6,30.04,WSW,258,1.0,3.0,100,0.00,,---,0.00,VWS V14.00,2013-02-06 06:45:00,
2013-02-06 01:50:00,50.6,50.6,30.04,West,261,0.0,3.0,100,0.00,,---,0.00,VWS V14.00,2013-02-06 06:50:00,
2013-02-06 01:55:00,50.5,50.5,30.04,West,260,1.0,3.0,100,0.00,,---,0.00,VWS V14.00,2013-02-06 06:55:00,
2013-02-06 02:00:00,50.3,50.3,30.03,WSW,240,1.0,3.0,100,0.00,,---,0.00,VWS V14.00,2013-02-06 07:00:00,
2013-02-06 02:05:00,50.2,50.2,30.04,WSW,240,2.0,2.0,100,0.00,,---,0.00,VWS V14.00,2013-02-06 07:05:00,
2013-02-06 02:10:00,50.1,50.1,30.04,WSW,250,1.0,2.0,100,0.00,,---,0.00,VWS V14.00,2013-02-06 07:10:00,
2013-02-06 02:15:00,50.1,50.1,30.04,WSW,251,1.0,2.0,100,0.00,,---,0.00,VWS V14.00,2013-02-06 07:15:00,
2013-02-06 02:20:00,50.1,50.1,30.04,WSW,253,2.0,3.0,100,0.00,,---,0.00,VWS V14.00,2013-02-06 07:20:00,
2013-02-06 02:25:00,50.1,50.1,30.04,WSW,256,1.0,3.0,100,0.00,,---,0.00,VWS V14.00,2013-02-06 07:25:00,
2013-02-06 02:30:00,50.1,50.1,30.04,West,264,2.0,3.0,100,0.00,,---,0.00,VWS V14.00,2013-02-06 07:30:00,
2013-02-06 02:35:00,50.0,50.0,30.04,West,265,1.0,2.0,100,0.00,,---,0.00,VWS V14.00,2013-02-06 07:35:00,
2013-02-06 02:40:00,50.0,50.0,30.04,West,265,2.0,2.0,100,0.00,,---,0.00,VWS V14.00,2013-02-06 07:40:00,
2013-02-06 02:45:00,50.0,50.0,30.04,West,266,0.0,2.0,100,0.00,,---,0.00,VWS V14.00,2013-02-06 07:45:00,
2013-02-06 02:50:00,49.9,49.9,30.04,West,266,0.0,2.0,100,0.00,,---,0.00,VWS V14.00,2013-02-06 07:50:00,
2013-02-06 02:55:00,49.8,49.8,30.04,West,266,1.0,2.0,100,0.00,,---,0.00,VWS V14.00,2013-02-06 07:55:00,
2013-02-06 03:00:00,49.7,49.7,30.04,West,266,1.0,2.0,100,0.00,,---,0.00,VWS V14.00,2013-02-06 08:00:00,
2013-02-06 03:05:00,49.6,49.6,30.04,West,266,0.0,1.0,100,0.00,,---,0.00,VWS V14.00,2013-02-06 08:05:00,
2013-02-06 03:10:00,49.5,49.2,30.04,West,266,0.0,1.0,99,0.00,,---,0.00,VWS V14.00,2013-02-06 08:10:00,
2013-02-06 03:15:00,49.4,49.4,30.04,West,266,2.0,2.0,100,0.00,,---,0.00,VWS V14.00,2013-02-06 08:15:00,
2013-02-06 03:20:00,49.4,49.4,30.05,West,266,1.0,2.0,100,0.00,,---,0.00,VWS V14.00,2013-02-06 08:20:00,
2013-02-06 03:25:00,49.3,49.0,30.05,West,266,1.0,2.0,99,0.00,,---,0.00,VWS V14.00,2013-02-06 08:25:00,
2013-02-06 03:30:00,49.2,48.9,30.05,West,266,0.0,2.0,99,0.00,,---,0.00,VWS V14.00,2013-02-06 08:30:00,
2013-02-06 03:35:00,49.2,49.2,30.05,West,266,1.0,1.0,100,0.00,,---,0.00,VWS V14.00,2013-02-06 08:35:00,
2013-02-06 03:40:00,49.1,49.1,30.05,West,266,1.0,1.0,100,0.00,,---,0.00,VWS V14.00,2013-02-06 08:40:00,
2013-02-06 03:45:00,49.0,49.0,30.05,West,266,0.0,1.0,100,0.00,,---,0.00,VWS V14.00,2013-02-06 08:45:00,
2013-02-06 03:50:00,49.0,49.0,30.05,West,266,0.0,1.0,100,0.00,,---,0.00,VWS V14.00,2013-02-06 08:50:00,
2013-02-06 03:55:00,48.9,48.9,30.05,West,266,0.0,1.0,100,0.00,,---,0.00,VWS V14.00,2013-02-06 08:55:00,
2013-02-06 04:00:00,48.8,48.8,30.05,West,266,0.0,1.0,100,0.00,,---,0.00,VWS V14.00,2013-02-06 09:00:00,
2013-02-06 04:05:00,48.8,48.8,30.05,West,266,1.0,2.0,100,0.00,,---,0.00,VWS V14.00,2013-02-06 09:05:00,
2013-02-06 04:10:00,48.9,48.9,30.06,West,266,1.0,2.0,100,0.00,,---,0.00,VWS V14.00,2013-02-06 09:10:00,
2013-02-06 04:15:00,49.0,49.0,30.06,West,267,1.0,3.0,100,0.00,,---,0.00,VWS V14.00,2013-02-06 09:15:00,
2013-02-06 04:20:00,49.1,49.1,30.06,West,267,1.0,3.0,100,0.00,,---,0.00,VWS V14.00,2013-02-06 09:20:00,
2013-02-06 04:25:00,49.0,49.0,30.06,West,267,0.0,3.0,100,0.00,,---,0.00,VWS V14.00,2013-02-06 09:25:00,
2013-02-06 04:30:00,49.0,49.0,30.07,West,267,0.0,3.0,100,0.00,,---,0.00,VWS V14.00,2013-02-06 09:30:00,
2013-02-06 04:35:00,48.9,48.9,30.07,West,267,0.0,0.0,100,0.00,,---,0.00,VWS V14.00,2013-02-06 09:35:00,
2013-02-06 04:40:00,48.8,48.8,30.07,West,267,0.0,0.0,100,0.00,,---,0.00,VWS V14.00,2013-02-06 09:40:00,
2013-02-06 04:45:00,48.8,48.8,30.07,West,267,0.0,0.0,100,0.00,,---,0.00,VWS V14.00,2013-02-06 09:45:00,
2013-02-06 04:50:00,48.7,48.7,30.07,West,267,0.0,0.0,100,0.00,,---,0.00,VWS V14.00,2013-02-06 09:50:00,
2013-02-06 04:55:00,48.7,48.7,30.08,West,267,0.0,0.0,100,0.00,,---,0.00,VWS V14.00,2013-02-06 09:55:00,
2013-02-06 05:00:00,48.6,48.6,30.08,West,267,0.0,0.0,100,0.00,,---,0.00,VWS V14.00,2013-02-06 10:00:00,
2013-02-06 05:05:00,48.6,48.6,30.08,West,267,0.0,0.0,100,0.00,,---,0.00,VWS V14.00,2013-02-06 10:05:00,
2013-02-06 05:10:00,48.5,48.5,30.08,West,267,0.0,0.0,100,0.00,,---,0.00,VWS V14.00,2013-02-06 10:10:00,
2013-02-06 05:15:00,48.5,48.5,30.08,West,267,0.0,0.0,100,0.00,,---,0.00,VWS V14.00,2013-02-06 10:15:00,
2013-02-06 05:20:00,48.5,48.5,30.09,West,267,0.0,0.0,100,0.00,,---,0.00,VWS V14.00,2013-02-06 10:20:00,
2013-02-06 05:25:00,48.4,48.4,30.09,West,267,0.0,0.0,100,0.00,,---,0.00,VWS V14.00,2013-02-06 10:25:00,
2013-02-06 05:30:00,48.4,48.4,30.09,West,267,0.0,0.0,100,0.00,,---,0.00,VWS V14.00,2013-02-06 10:30:00,
2013-02-06 05:35:00,48.4,48.4,30.10,West,267,0.0,0.0,100,0.00,,---,0.00,VWS V14.00,2013-02-06 10:35:00,
2013-02-06 05:40:00,48.3,48.3,30.10,West,267,0.0,0.0,100,0.00,,---,0.00,VWS V14.00,2013-02-06 10:40:00,
2013-02-06 05:45:00,48.3,48.3,30.10,West,268,0.0,0.0,100,0.00,,---,0.00,VWS V14.00,2013-02-06 10:45:00,
2013-02-06 05:50:00,48.2,48.2,30.10,West,275,0.0,0.0,100,0.00,,---,0.00,VWS V14.00,2013-02-06 10:50:00,
2013-02-06 05:55:00,48.2,48.2,30.11,West,275,0.0,0.0,100,0.00,,---,0.00,VWS V14.00,2013-02-06 10:55:00,
2013-02-06 06:00:00,48.1,48.1,30.11,West,274,0.0,0.0,100,0.00,,---,0.00,VWS V14.00,2013-02-06 11:00:00,
2013-02-06 06:05:00,48.1,48.1,30.11,West,274,0.0,0.0,100,0.00,,---,0.00,VWS V14.00,2013-02-06 11:05:00,
2013-02-06 06:10:00,48.1,48.1,30.11,West,275,0.0,0.0,100,0.00,,---,0.00,VWS V14.00,2013-02-06 11:10:00,
2013-02-06 06:15:00,48.1,48.1,30.11,West,274,0.0,0.0,100,0.00,,---,0.00,VWS V14.00,2013-02-06 11:15:00,
2013-02-06 06:20:00,48.1,48.1,30.11,West,274,0.0,0.0,100,0.00,,---,0.00,VWS V14.00,2013-02-06 11:20:00,
2013-02-06 06:25:00,48.0,48.0,30.12,West,274,0.0,0.0,100,0.00,,---,0.00,VWS V14.00,2013-02-06 11:25:00,
2013-02-06 06:30:00,47.9,47.9,30.12,West,274,0.0,0.0,100,0.00,,---,0.00,VWS V14.00,2013-02-06 11:30:00,
2013-02-06 06:35:00,47.8,47.8,30.12,West,274,0.0,0.0,100,0.00,,---,0.00,VWS V14.00,2013-02-06 11:35:00,
2013-02-06 06:40:00,47.8,47.8,30.12,West,274,0.0,0.0,100,0.00,,---,0.00,VWS V14.00,2013-02-06 11:40:00,
2013-02-06 06:45:00,47.7,47.7,30.12,West,274,0.0,0.0,100,0.00,,---,0.00,VWS V14.00,2013-02-06 11:45:00,
2013-02-06 06:50:00,47.6,47.6,30.12,West,275,0.0,0.0,100,0.00,,---,0.00,VWS V14.00,2013-02-06 11:50:00,
2013-02-06 06:55:00,47.6,47.6,30.13,West,274,0.0,0.0,100,0.00,,---,0.00,VWS V14.00,2013-02-06 11:55:00,
2013-02-06 07:00:00,47.4,47.4,30.13,West,275,0.0,0.0,100,0.00,,---,0.00,VWS V14.00,2013-02-06 12:00:00,
2013-02-06 07:05:00,47.3,47.3,30.13,West,274,0.0,0.0,100,0.00,,---,0.00,VWS V14.00,2013-02-06 12:05:00,
2013-02-06 07:10:00,47.2,47.2,30.14,West,275,0.0,0.0,100,0.00,,---,0.00,VWS V14.00,2013-02-06 12:10:00,
2013-02-06 07:14:00,47.2,47.2,30.14,West,274,0.0,0.0,100,0.00,,---,0.00,VWS V14.00,2013-02-06 12:14:00,
2013-02-06 07:19:00,47.1,47.1,30.14,West,274,0.0,0.0,100,0.00,,---,0.00,VWS V14.00,2013-02-06 12:19:00,
2013-02-06 07:24:00,47.1,47.1,30.14,West,274,0.0,0.0,100,0.00,,---,0.00,VWS V14.00,2013-02-06 12:24:00,
2013-02-06 07:29:00,47.0,47.0,30.14,West,274,0.0,0.0,100,0.00,,---,0.00,VWS V14.00,2013-02-06 12:29:00,
2013-02-06 07:34:00,46.9,46.9,30.15,West,274,0.0,0.0,100,0.00,,---,0.00,VWS V14.00,2013-02-06 12:34:00,
2013-02-06 07:39:00,46.8,46.8,30.15,West,275,0.0,0.0,100,0.00,,---,0.00,VWS V14.00,2013-02-06 12:39:00,
2013-02-06 07:44:00,46.8,46.8,30.16,West,274,0.0,0.0,100,0.00,,---,0.00,VWS V14.00,2013-02-06 12:44:00,
2013-02-06 07:49:00,46.8,46.8,30.16,West,275,0.0,0.0,100,0.00,,---,0.00,VWS V14.00,2013-02-06 12:49:00,
2013-02-06 07:54:00,46.7,46.7,30.16,WNW,286,1.0,2.0,100,0.00,,---,0.00,VWS V14.00,2013-02-06 12:54:00,
2013-02-06 07:59:00,46.7,46.7,30.17,NW,304,1.0,2.0,100,0.00,,---,0.00,VWS V14.00,2013-02-06 12:59:00,
2013-02-06 08:04:00,46.8,46.8,30.17,NW,309,1.0,2.0,100,0.00,,---,0.00,VWS V14.00,2013-02-06 13:04:00,
2013-02-06 08:09:00,46.8,46.8,30.17,NW,309,1.0,2.0,100,0.00,,---,0.00,VWS V14.00,2013-02-06 13:09:00,
2013-02-06 08:14:00,46.8,46.8,30.17,NW,309,0.0,2.0,100,0.00,,---,0.00,VWS V14.00,2013-02-06 13:14:00,
2013-02-06 08:19:00,46.8,46.8,30.17,NW,309,0.0,2.0,100,0.00,,---,0.00,VWS V14.00,2013-02-06 13:19:00,
2013-02-06 08:24:00,46.8,46.8,30.17,NW,310,0.0,2.0,100,0.00,,---,0.00,VWS V14.00,2013-02-06 13:24:00,
2013-02-06 08:29:00,46.8,46.8,30.17,NW,309,0.0,2.0,100,0.00,,---,0.00,VWS V14.00,2013-02-06 13:29:00,
2013-02-06 08:34:00,46.8,46.8,30.18,NW,309,0.0,0.0,100,0.00,,---,0.00,VWS V14.00,2013-02-06 13:34:00,
2013-02-06 08:39:00,46.8,46.8,30.18,NW,312,0.0,0.0,100,0.00,,---,0.00,VWS V14.00,2013-02-06 13:39:00,
2013-02-06 08:44:00,46.8,46.8,30.18,NW,312,0.0,0.0,100,0.00,,---,0.00,VWS V14.00,2013-02-06 13:44:00,
2013-02-06 08:49:00,46.8,46.8,30.18,NW,312,0.0,0.0,100,0.00,,---,0.00,VWS V14.00,2013-02-06 13:49:00,
2013-02-06 08:54:00,46.8,46.8,30.18,NW,312,0.0,0.0,100,0.00,,---,0.00,VWS V14.00,2013-02-06 13:54:00,
2013-02-06 08:59:00,46.9,46.9,30.18,NW,312,0.0,0.0,100,0.00,,---,0.00,VWS V14.00,2013-02-06 13:59:00,
2013-02-06 09:04:00,46.9,46.9,30.18,NW,312,0.0,0.0,100,0.00,,---,0.00,VWS V14.00,2013-02-06 14:04:00,
2013-02-06 09:09:00,47.0,47.0,30.19,NW,312,0.0,0.0,100,0.00,,---,0.00,VWS V14.00,2013-02-06 14:09:00,
2013-02-06 09:14:00,47.1,47.1,30.19,NW,312,0.0,0.0,100,0.00,,---,0.00,VWS V14.00,2013-02-06 14:14:00,
2013-02-06 09:19:00,47.1,47.1,30.18,NW,312,0.0,0.0,100,0.00,,---,0.00,VWS V14.00,2013-02-06 14:19:00,
2013-02-06 09:24:00,47.2,47.2,30.19,NW,312,0.0,0.0,100,0.00,,---,0.00,VWS V14.00,2013-02-06 14:24:00,
2013-02-06 09:29:00,47.2,47.2,30.18,NW,312,0.0,0.0,100,0.00,,---,0.00,VWS V14.00,2013-02-06 14:29:00,
2013-02-06 09:34:00,47.3,47.3,30.19,NW,312,0.0,0.0,100,0.00,,---,0.00,VWS V14.00,2013-02-06 14:34:00,
2013-02-06 09:39:00,47.6,47.6,30.19,NW,312,0.0,0.0,100,0.00,,---,0.00,VWS V14.00,2013-02-06 14:39:00,
2013-02-06 09:44:00,47.8,47.8,30.20,NW,312,0.0,0.0,100,0.00,,---,0.00,VWS V14.00,2013-02-06 14:44:00,
2013-02-06 09:49:00,48.2,48.2,30.19,NW,314,0.0,0.0,100,0.00,,---,0.00,VWS V14.00,2013-02-06 14:49:00,
2013-02-06 09:54:00,48.5,48.5,30.20,NNW,342,2.0,3.0,100,0.00,,---,0.00,VWS V14.00,2013-02-06 14:54:00,
2013-02-06 09:59:00,49.0,49.0,30.20,North,351,2.0,5.0,100,0.00,,---,0.00,VWS V14.00,2013-02-06 14:59:00,
2013-02-06 10:04:00,49.5,49.5,30.20,NNE,16,2.0,4.0,100,0.00,,---,0.00,VWS V14.00,2013-02-06 15:04:00,
2013-02-06 10:09:00,50.1,49.6,30.20,North,2,3.0,7.0,98,0.00,,---,0.00,VWS V14.00,2013-02-06 15:09:00,
2013-02-06 10:14:00,50.4,49.3,30.20,North,1,2.0,7.0,96,0.00,,---,0.00,VWS V14.00,2013-02-06 15:14:00,
2013-02-06 10:19:00,50.6,48.7,30.20,North,2,1.0,7.0,93,0.00,,---,0.00,VWS V14.00,2013-02-06 15:19:00,
2013-02-06 10:24:00,50.8,48.8,30.20,North,0,0.0,7.0,93,0.00,,---,0.00,VWS V14.00,2013-02-06 15:24:00,
2013-02-06 10:29:00,51.0,48.8,30.20,North,2,0.0,7.0,92,0.00,,---,0.00,VWS V14.00,2013-02-06 15:29:00,
2013-02-06 10:34:00,51.1,48.3,30.20,North,2,1.0,2.0,90,0.00,,---,0.00,VWS V14.00,2013-02-06 15:34:00,
2013-02-06 10:39:00,51.4,47.7,30.20,North,3,2.0,2.0,87,0.00,,---,0.00,VWS V14.00,2013-02-06 15:39:00,
2013-02-06 10:44:00,51.6,46.9,30.20,North,7,3.0,3.0,84,0.00,,---,0.00,VWS V14.00,2013-02-06 15:44:00,
2013-02-06 10:49:00,51.8,46.8,30.20,North,0,1.0,7.0,83,0.00,,---,0.00,VWS V14.00,2013-02-06 15:49:00,
2013-02-06 10:54:00,52.0,47.3,30.20,NNE,14,2.0,7.0,84,0.00,,---,0.00,VWS V14.00,2013-02-06 15:54:00,
2013-02-06 10:59:00,52.2,46.9,30.20,North,2,0.0,7.0,82,0.00,,---,0.00,VWS V14.00,2013-02-06 15:59:00,
2013-02-06 11:04:00,52.4,46.8,30.20,North,357,1.0,5.0,81,0.00,,---,0.00,VWS V14.00,2013-02-06 16:04:00,
2013-02-06 11:09:00,52.6,46.6,30.20,North,3,1.0,6.0,80,0.00,,---,0.00,VWS V14.00,2013-02-06 16:09:00,
2013-02-06 11:14:00,52.8,46.1,30.20,NNE,17,4.0,8.0,78,0.00,,---,0.00,VWS V14.00,2013-02-06 16:14:00,
2013-02-06 11:19:00,53.0,45.0,30.20,NNE,29,2.0,8.0,74,0.00,,---,0.00,VWS V14.00,2013-02-06 16:19:00,
2013-02-06 11:24:00,53.2,44.4,30.20,NE,42,4.0,8.0,72,0.00,,---,0.00,VWS V14.00,2013-02-06 16:24:00,
2013-02-06 11:29:00,53.3,45.2,30.20,NNE,22,1.0,8.0,74,0.00,,---,0.00,VWS V14.00,2013-02-06 16:29:00,
2013-02-06 11:34:00,53.4,45.3,30.20,North,9,0.0,6.0,74,0.00,,---,0.00,VWS V14.00,2013-02-06 16:34:00,
2013-02-06 11:39:00,53.5,44.7,30.20,NNE,24,4.0,6.0,72,0.00,,---,0.00,VWS V14.00,2013-02-06 16:39:00,
2013-02-06 11:44:00,53.7,44.5,30.20,NNE,30,5.0,8.0,71,0.00,,---,0.00,VWS V14.00,2013-02-06 16:44:00,
2013-02-06 11:49:00,53.8,44.3,30.19,NE,49,1.0,8.0,70,0.00,,---,0.00,VWS V14.00,2013-02-06 16:49:00,
2013-02-06 11:54:00,54.0,44.8,30.19,NE,48,1.0,8.0,71,0.00,,---,0.00,VWS V14.00,2013-02-06 16:54:00,
2013-02-06 11:59:00,54.1,44.9,30.19,NNE,27,4.0,8.0,71,0.00,,---,0.00,VWS V14.00,2013-02-06 16:59:00,
2013-02-06 12:04:00,54.3,45.1,30.19,NNE,26,3.0,5.0,71,0.00,,---,0.00,VWS V14.00,2013-02-06 17:04:00,
2013-02-06 12:09:00,54.4,44.8,30.19,North,1,0.0,7.0,70,0.00,,---,0.00,VWS V14.00,2013-02-06 17:09:00,
2013-02-06 12:14:00,54.6,44.3,30.19,NNE,30,0.0,7.0,68,0.00,,---,0.00,VWS V14.00,2013-02-06 17:14:00,
2013-02-06 12:19:00,54.7,45.5,30.18,North,0,0.0,7.0,71,0.00,,---,0.00,VWS V14.00,2013-02-06 17:19:00,
2013-02-06 12:24:00,54.8,44.5,30.18,North,1,0.0,7.0,68,0.00,,---,0.00,VWS V14.00,2013-02-06 17:24:00,
2013-02-06 12:29:00,55.0,44.7,30.18,North,6,0.0,7.0,68,0.00,,---,0.00,VWS V14.00,2013-02-06 17:29:00,
2013-02-06 12:34:00,55.0,44.7,30.18,North,6,0.0,1.0,68,0.00,,---,0.00,VWS V14.00,2013-02-06 17:34:00,
2013-02-06 12:39:00,55.1,44.7,30.18,NNE,26,0.0,1.0,68,0.00,,---,0.00,VWS V14.00,2013-02-06 17:39:00,
2013-02-06 12:44:00,55.2,44.5,30.17,ENE,64,0.0,1.0,67,0.00,,---,0.00,VWS V14.00,2013-02-06 17:44:00,
2013-02-06 12:49:00,55.4,44.6,30.17,ENE,64,0.0,1.0,67,0.00,,---,0.00,VWS V14.00,2013-02-06 17:49:00,
2013-02-06 12:54:00,55.6,44.8,30.17,ENE,64,0.0,1.0,67,0.00,,---,0.00,VWS V14.00,2013-02-06 17:54:00,
2013-02-06 12:59:00,55.7,46.1,30.17,East,101,1.0,2.0,70,0.00,,---,0.00,VWS V14.00,2013-02-06 17:59:00,
2013-02-06 13:04:00,56.1,46.5,30.17,ESE,116,2.0,3.0,70,0.00,,---,0.00,VWS V14.00,2013-02-06 18:04:00,
2013-02-06 13:09:00,56.4,46.0,30.16,ESE,110,1.0,3.0,68,0.00,,---,0.00,VWS V14.00,2013-02-06 18:09:00,
2013-02-06 13:14:00,56.5,46.5,30.16,ESE,114,0.0,3.0,69,0.00,,---,0.00,VWS V14.00,2013-02-06 18:14:00,
2013-02-06 13:19:00,56.8,46.0,30.16,East,101,0.0,3.0,67,0.00,,---,0.00,VWS V14.00,2013-02-06 18:19:00,
2013-02-06 13:24:00,57.0,46.2,30.16,ESE,103,2.0,3.0,67,0.00,,---,0.00,VWS V14.00,2013-02-06 18:24:00,
2013-02-06 13:29:00,57.2,46.4,30.16,East,93,0.0,3.0,67,0.00,,---,0.00,VWS V14.00,2013-02-06 18:29:00,
2013-02-06 13:34:00,57.3,46.5,30.16,ESE,108,0.0,1.0,67,0.00,,---,0.00,VWS V14.00,2013-02-06 18:34:00,
2013-02-06 13:39:00,57.5,46.2,30.16,SE,143,0.0,2.0,66,0.00,,---,0.00,VWS V14.00,2013-02-06 18:39:00,
2013-02-06 13:44:00,57.6,45.5,30.16,SE,145,0.0,2.0,64,0.00,,---,0.00,VWS V14.00,2013-02-06 18:44:00,
2013-02-06 13:49:00,57.9,46.6,30.16,East,89,0.0,2.0,66,0.00,,---,0.00,VWS V14.00,2013-02-06 18:49:00,
2013-02-06 13:54:00,58.0,46.3,30.16,ESE,104,0.0,2.0,65,0.00,,---,0.00,VWS V14.00,2013-02-06 18:54:00,
2013-02-06 13:59:00,58.2,46.9,30.16,SSE,148,1.0,2.0,66,0.00,,---,0.00,VWS V14.00,2013-02-06 18:59:00,
2013-02-06 14:04:00,58.5,46.8,30.16,SE,136,0.0,2.0,65,0.00,,---,0.00,VWS V14.00,2013-02-06 19:04:00,
2013-02-06 14:09:00,58.7,47.0,30.16,SSE,165,5.0,9.0,65,0.00,,---,0.00,VWS V14.00,2013-02-06 19:09:00,
2013-02-06 14:14:00,59.0,46.8,30.16,SSE,147,1.0,9.0,64,0.00,,---,0.00,VWS V14.00,2013-02-06 19:14:00,
2013-02-06 14:19:00,59.1,47.4,30.16,SE,144,2.0,9.0,65,0.00,,---,0.00,VWS V14.00,2013-02-06 19:19:00,
2013-02-06 14:24:00,59.3,48.0,30.16,SE,145,6.0,9.0,66,0.00,,---,0.00,VWS V14.00,2013-02-06 19:24:00,
2013-02-06 14:29:00,59.4,47.7,30.16,SSE,168,1.0,9.0,65,0.00,,---,0.00,VWS V14.00,2013-02-06 19:29:00,
2013-02-06 14:34:00,59.5,47.3,30.17,SSE,165,2.0,8.0,64,0.00,,---,0.00,VWS V14.00,2013-02-06 19:34:00,
2013-02-06 14:39:00,59.6,47.4,30.16,SSE,151,8.0,8.0,64,0.00,,---,0.00,VWS V14.00,2013-02-06 19:39:00,
2013-02-06 14:44:00,59.6,47.4,30.16,SSE,148,5.0,9.0,64,0.00,,---,0.00,VWS V14.00,2013-02-06 19:44:00,
2013-02-06 14:49:00,59.7,47.1,30.16,SE,132,3.0,9.0,63,0.00,,---,0.00,VWS V14.00,2013-02-06 19:49:00,
2013-02-06 14:54:00,59.7,47.1,30.16,ESE,114,4.0,9.0,63,0.00,,---,0.00,VWS V14.00,2013-02-06 19:54:00,
2013-02-06 14:59:00,59.6,46.6,30.16,SE,124,5.0,9.0,62,0.00,,---,0.00,VWS V14.00,2013-02-06 19:59:00,
2013-02-06 15:04:00,59.6,46.6,30.16,ESE,122,1.0,6.0,62,0.00,,---,0.00,VWS V14.00,2013-02-06 20:04:00,
2013-02-06 15:09:00,59.7,46.2,30.16,ESE,120,3.0,6.0,61,0.00,,---,0.00,VWS V14.00,2013-02-06 20:09:00,
2013-02-06 15:14:00,59.7,45.8,30.16,ESE,111,1.0,6.0,60,0.00,,---,0.00,VWS V14.00,2013-02-06 20:14:00,
2013-02-06 15:19:00,59.6,46.2,30.16,SE,136,0.0,6.0,61,0.00,,---,0.00,VWS V14.00,2013-02-06 20:19:00,
2013-02-06 15:24:00,59.6,46.2,30.16,SE,133,1.0,6.0,61,0.00,,---,0.00,VWS V14.00,2013-02-06 20:24:00,
2013-02-06 15:29:00,59.6,47.0,30.16,SE,145,0.0,6.0,63,0.00,,---,0.00,VWS V14.00,2013-02-06 20:29:00,
2013-02-06 15:34:00,59.6,47.4,30.16,ESE,116,3.0,5.0,64,0.00,,---,0.00,VWS V14.00,2013-02-06 20:34:00,
2013-02-06 15:39:00,59.4,47.7,30.17,ESE,118,0.0,5.0,65,0.00,,---,0.00,VWS V14.00,2013-02-06 20:39:00,
2013-02-06 15:44:00,59.3,47.5,30.16,SE,126,3.0,5.0,65,0.00,,---,0.00,VWS V14.00,2013-02-06 20:44:00,
2013-02-06 15:49:00,59.2,47.5,30.17,SE,128,0.0,6.0,65,0.00,,---,0.00,VWS V14.00,2013-02-06 20:49:00,
2013-02-06 15:54:00,59.1,47.4,30.17,ESE,119,1.0,6.0,65,0.00,,---,0.00,VWS V14.00,2013-02-06 20:54:00,
2013-02-06 15:59:00,59.0,48.1,30.17,ESE,116,2.0,6.0,67,0.00,,---,0.00,VWS V14.00,2013-02-06 20:59:00,
2013-02-06 16:04:00,59.0,47.7,30.17,ESE,106,2.0,3.0,66,0.00,,---,0.00,VWS V14.00,2013-02-06 21:04:00,
2013-02-06 16:09:00,58.9,47.6,30.17,SE,125,0.0,4.0,66,0.00,,---,0.00,VWS V14.00,2013-02-06 21:09:00,
2013-02-06 16:14:00,58.9,47.2,30.17,ESE,121,1.0,4.0,65,0.00,,---,0.00,VWS V14.00,2013-02-06 21:14:00,
2013-02-06 16:19:00,58.8,47.5,30.17,ESE,118,2.0,4.0,66,0.00,,---,0.00,VWS V14.00,2013-02-06 21:19:00,
2013-02-06 16:24:00,58.7,47.8,30.17,ESE,114,0.0,4.0,67,0.00,,---,0.00,VWS V14.00,2013-02-06 21:24:00,
2013-02-06 16:29:00,58.6,47.3,30.17,ESE,116,2.0,4.0,66,0.00,,---,0.00,VWS V14.00,2013-02-06 21:29:00,
2013-02-06 16:34:00,58.4,46.3,30.17,ESE,121,1.0,5.0,64,0.00,,---,0.00,VWS V14.00,2013-02-06 21:34:00,
2013-02-06 16:39:00,58.3,46.2,30.18,East,100,2.0,5.0,64,0.00,,---,0.00,VWS V14.00,2013-02-06 21:39:00,
2013-02-06 16:44:00,58.2,46.5,30.18,ESE,107,1.0,5.0,65,0.00,,---,0.00,VWS V14.00,2013-02-06 21:44:00,
2013-02-06 16:49:00,58.0,46.3,30.18,East,97,0.0,5.0,65,0.00,,---,0.00,VWS V14.00,2013-02-06 21:49:00,
2013-02-06 16:54:00,57.9,46.2,30.18,SE,127,2.0,5.0,65,0.00,,---,0.00,VWS V14.00,2013-02-06 21:54:00,
2013-02-06 16:59:00,57.7,46.4,30.18,ESE,122,0.0,5.0,66,0.00,,---,0.00,VWS V14.00,2013-02-06 21:59:00,
2013-02-06 17:04:00,57.5,46.2,30.18,ESE,107,0.0,2.0,66,0.00,,---,0.00,VWS V14.00,2013-02-06 22:04:00,
2013-02-06 17:09:00,57.3,46.0,30.19,ESE,123,1.0,2.0,66,0.00,,---,0.00,VWS V14.00,2013-02-06 22:09:00,
2013-02-06 17:14:00,57.2,46.8,30.19,ESE,123,1.0,2.0,68,0.00,,---,0.00,VWS V14.00,2013-02-06 22:14:00,
2013-02-06 17:19:00,57.0,46.6,30.19,SE,129,1.0,2.0,68,0.00,,---,0.00,VWS V14.00,2013-02-06 22:19:00,
2013-02-06 17:24:00,56.7,46.3,30.19,ESE,120,0.0,2.0,68,0.00,,---,0.00,VWS V14.00,2013-02-06 22:24:00,
2013-02-06 17:29:00,56.5,46.1,30.19,SE,130,0.0,2.0,68,0.00,,---,0.00,VWS V14.00,2013-02-06 22:29:00,
2013-02-06 17:34:00,56.3,46.3,30.20,ESE,117,0.0,1.0,69,0.00,,---,0.00,VWS V14.00,2013-02-06 22:34:00,
2013-02-06 17:39:00,56.0,46.0,30.20,ESE,117,0.0,1.0,69,0.00,,---,0.00,VWS V14.00,2013-02-06 22:39:00,
2013-02-06 17:44:00,55.8,46.2,30.20,ESE,109,1.0,1.0,70,0.00,,---,0.00,VWS V14.00,2013-02-06 22:44:00,
2013-02-06 17:49:00,55.5,46.3,30.20,East,101,0.0,1.0,71,0.00,,---,0.00,VWS V14.00,2013-02-06 22:49:00,
2013-02-06 17:54:00,55.3,46.4,30.20,ESE,103,0.0,1.0,72,0.00,,---,0.00,VWS V14.00,2013-02-06 22:54:00,
2013-02-06 17:59:00,55.1,46.6,30.20,ESE,110,0.0,1.0,73,0.00,,---,0.00,VWS V14.00,2013-02-06 22:59:00,
2013-02-06 18:04:00,54.8,46.3,30.21,East,98,1.0,1.0,73,0.00,,---,0.00,VWS V14.00,2013-02-06 23:04:00,
2013-02-06 18:09:00,54.6,46.1,30.21,East,90,0.0,1.0,73,0.00,,---,0.00,VWS V14.00,2013-02-06 23:09:00,
2013-02-06 18:14:00,54.4,46.3,30.21,East,91,0.0,1.0,74,0.00,,---,0.00,VWS V14.00,2013-02-06 23:14:00,
2013-02-06 18:19:00,54.3,46.6,30.21,East,91,0.0,1.0,75,0.00,,---,0.00,VWS V14.00,2013-02-06 23:19:00,
2013-02-06 18:24:00,54.1,46.4,30.22,East,91,0.0,1.0,75,0.00,,---,0.00,VWS V14.00,2013-02-06 23:24:00,
2013-02-06 18:29:00,53.9,46.2,30.22,East,91,0.0,1.0,75,0.00,,---,0.00,VWS V14.00,2013-02-06 23:29:00,
2013-02-06 18:34:00,53.7,45.6,30.22,East,91,0.0,0.0,74,0.00,,---,0.00,VWS V14.00,2013-02-06 23:34:00,
2013-02-06 18:39:00,53.5,45.4,30.22,East,91,0.0,0.0,74,0.00,,---,0.00,VWS V14.00,2013-02-06 23:39:00,
2013-02-06 18:44:00,53.3,45.6,30.23,East,91,0.0,0.0,75,0.00,,---,0.00,VWS V14.00,2013-02-06 23:44:00,
2013-02-06 18:49:00,53.1,45.4,30.23,East,91,0.0,0.0,75,0.00,,---,0.00,VWS V14.00,2013-02-06 23:49:00,
2013-02-06 18:54:00,53.0,45.3,30.23,East,91,0.0,0.0,75,0.00,,---,0.00,VWS V14.00,2013-02-06 23:54:00,
2013-02-06 18:59:00,52.8,45.5,30.24,East,91,0.0,0.0,76,0.00,,---,0.00,VWS V14.00,2013-02-06 23:59:00,
2013-02-06 19:04:00,52.6,45.6,30.24,East,91,0.0,0.0,77,0.00,,---,0.00,VWS V14.00,2013-02-07 00:04:00,
2013-02-06 19:09:00,52.5,45.8,30.24,East,91,0.0,0.0,78,0.00,,---,0.00,VWS V14.00,2013-02-07 00:09:00,
2013-02-06 19:14:00,52.3,46.3,30.25,East,86,0.0,0.0,80,0.00,,---,0.00,VWS V14.00,2013-02-07 00:14:00,
2013-02-06 19:19:00,52.2,45.9,30.25,ENE,70,0.0,1.0,79,0.00,,---,0.00,VWS V14.00,2013-02-07 00:19:00,
2013-02-06 19:24:00,52.1,46.1,30.26,ENE,71,0.0,1.0,80,0.00,,---,0.00,VWS V14.00,2013-02-07 00:24:00,
2013-02-06 19:29:00,52.0,45.7,30.26,NE,42,4.0,7.0,79,0.00,,---,0.00,VWS V14.00,2013-02-07 00:29:00,
2013-02-06 19:34:00,51.9,45.3,30.26,NE,46,3.0,8.0,78,0.00,,---,0.00,VWS V14.00,2013-02-07 00:34:00,
2013-02-06 19:39:00,51.7,44.7,30.26,NE,41,6.0,10.0,77,0.00,,---,0.00,VWS V14.00,2013-02-07 00:39:00,
2013-02-06 19:44:00,51.5,44.9,30.26,NE,46,5.0,11.0,78,0.00,,---,0.00,VWS V14.00,2013-02-07 00:44:00,
2013-02-06 19:49:00,51.3,45.0,30.26,NE,37,8.0,11.0,79,0.00,,---,0.00,VWS V14.00,2013-02-07 00:49:00,
2013-02-06 19:54:00,51.0,45.1,30.27,NE,48,7.0,11.0,80,0.00,,---,0.00,VWS V14.00,2013-02-07 00:54:00,
2013-02-06 19:59:00,50.8,45.5,30.27,NE,54,5.0,11.0,82,0.00,,---,0.00,VWS V14.00,2013-02-07 00:59:00,
2013-02-06 20:04:00,50.7,45.7,30.27,ENE,60,3.0,9.0,83,0.00,,---,0.00,VWS V14.00,2013-02-07 01:04:00,
2013-02-06 20:09:00,50.6,46.0,30.27,NE,51,3.0,9.0,84,0.00,,---,0.00,VWS V14.00,2013-02-07 01:09:00,
2013-02-06 20:14:00,50.6,46.0,30.27,NE,47,5.0,9.0,84,0.00,,---,0.00,VWS V14.00,2013-02-07 01:14:00,
2013-02-06 20:19:00,50.5,46.2,30.27,NE,46,5.0,11.0,85,0.00,,---,0.00,VWS V14.00,2013-02-07 01:19:00,
2013-02-06 20:24:00,50.3,46.0,30.28,NE,47,5.0,11.0,85,0.00,,---,0.00,VWS V14.00,2013-02-07 01:24:00,
2013-02-06 20:29:00,50.2,46.2,30.28,NE,47,10.0,11.0,86,0.00,,---,0.00,VWS V14.00,2013-02-07 01:29:00,
2013-02-06 20:34:00,50.1,46.1,30.28,NE,43,9.0,11.0,86,0.00,,---,0.00,VWS V14.00,2013-02-07 01:34:00,
2013-02-06 20:39:00,49.9,46.2,30.29,ENE,59,5.0,11.0,87,0.00,,---,0.00,VWS V14.00,2013-02-07 01:39:00,
2013-02-06 20:44:00,49.8,46.4,30.29,NE,44,8.0,12.0,88,0.00,,---,0.00,VWS V14.00,2013-02-07 01:44:00,
2013-02-06 20:49:00,49.7,46.3,30.29,NE,43,7.0,14.0,88,0.00,,---,0.00,VWS V14.00,2013-02-07 01:49:00,
2013-02-06 20:54:00,49.6,46.5,30.29,NE,37,9.0,14.0,89,0.00,,---,0.00,VWS V14.00,2013-02-07 01:54:00,
2013-02-06 20:59:00,49.5,46.4,30.29,NE,51,8.0,14.0,89,0.00,,---,0.00,VWS V14.00,2013-02-07 01:59:00,
2013-02-06 21:04:00,49.4,46.6,30.29,NE,48,8.0,12.0,90,0.00,,---,0.00,VWS V14.00,2013-02-07 02:04:00,
2013-02-06 21:09:00,49.3,46.5,30.29,NE,45,8.0,13.0,90,0.00,,---,0.00,VWS V14.00,2013-02-07 02:09:00,
2013-02-06 21:14:00,49.3,46.5,30.29,NE,48,5.0,14.0,90,0.00,,---,0.00,VWS V14.00,2013-02-07 02:14:00,
2013-02-06 21:19:00,49.2,46.4,30.29,NE,54,5.0,14.0,90,0.00,,---,0.00,VWS V14.00,2013-02-07 02:19:00,
2013-02-06 21:24:00,49.1,46.6,30.29,NE,51,10.0,14.0,91,0.00,,---,0.00,VWS V14.00,2013-02-07 02:24:00,
2013-02-06 21:29:00,49.0,46.5,30.29,NE,45,8.0,14.0,91,0.00,,---,0.00,VWS V14.00,2013-02-07 02:29:00,
2013-02-06 21:34:00,49.0,46.5,30.30,ENE,58,6.0,12.0,91,0.00,,---,0.00,VWS V14.00,2013-02-07 02:34:00,
2013-02-06 21:39:00,49.0,46.5,30.30,NE,46,8.0,12.0,91,0.00,,---,0.00,VWS V14.00,2013-02-07 02:39:00,
2013-02-06 21:44:00,48.9,46.7,30.30,NE,40,8.0,14.0,92,0.00,,---,0.00,VWS V14.00,2013-02-07 02:44:00,
2013-02-06 21:49:00,48.8,46.6,30.30,NE,51,6.0,14.0,92,0.00,,---,0.00,VWS V14.00,2013-02-07 02:49:00,
2013-02-06 21:54:00,48.7,46.5,30.30,NE,45,9.0,14.0,92,0.00,,---,0.00,VWS V14.00,2013-02-07 02:54:00,
2013-02-06 21:59:00,48.6,46.4,30.30,NE,52,8.0,14.0,92,0.00,,---,0.00,VWS V14.00,2013-02-07 02:59:00,
2013-02-06 22:04:00,48.6,46.7,30.30,NNE,33,9.0,10.0,93,0.00,,---,0.00,VWS V14.00,2013-02-07 03:04:00,
2013-02-06 22:09:00,48.5,46.6,30.30,NE,44,11.0,12.0,93,0.00,,---,0.00,VWS V14.00,2013-02-07 03:09:00,
2013-02-06 22:14:00,48.5,46.6,30.30,NE,49,8.0,12.0,93,0.00,,---,0.00,VWS V14.00,2013-02-07 03:14:00,
2013-02-06 22:19:00,48.4,46.5,30.30,NE,44,6.0,12.0,93,0.00,,---,0.00,VWS V14.00,2013-02-07 03:19:00,
2013-02-06 22:24:00,48.4,46.8,30.30,NE,41,10.0,13.0,94,0.00,,---,0.00,VWS V14.00,2013-02-07 03:24:00,
2013-02-06 22:29:00,48.3,46.7,30.31,ENE,59,8.0,13.0,94,0.00,,---,0.00,VWS V14.00,2013-02-07 03:29:00,
2013-02-06 22:34:00,48.3,46.7,30.30,NE,52,6.0,13.0,94,0.00,,---,0.00,VWS V14.00,2013-02-07 03:34:00,
2013-02-06 22:39:00,48.3,46.7,30.30,NE,44,5.0,13.0,94,0.00,,---,0.00,VWS V14.00,2013-02-07 03:39:00,
2013-02-06 22:44:00,48.2,46.6,30.30,NE,43,9.0,13.0,94,0.00,,---,0.00,VWS V14.00,2013-02-07 03:44:00,
2013-02-06 22:49:00,48.2,46.8,30.30,NE,46,8.0,13.0,95,0.00,,---,0.00,VWS V14.00,2013-02-07 03:49:00,
2013-02-06 22:54:00,48.2,46.8,30.30,NE,42,7.0,13.0,95,0.00,,---,0.00,VWS V14.00,2013-02-07 03:54:00,
2013-02-06 22:59:00,48.1,46.7,30.30,NE,45,6.0,13.0,95,0.00,,---,0.00,VWS V14.00,2013-02-07 03:59:00,
2013-02-06 23:04:00,48.1,46.7,30.30,NE,38,11.0,11.0,95,0.00,,---,0.00,VWS V14.00,2013-02-07 04:04:00,
2013-02-06 23:09:00,48.0,46.6,30.30,NE,47,7.0,12.0,95,0.00,,---,0.00,VWS V14.00,2013-02-07 04:09:00,
2013-02-06 23:14:00,48.0,46.6,30.30,ENE,58,4.0,12.0,95,0.00,,---,0.00,VWS V14.00,2013-02-07 04:14:00,
2013-02-06 23:19:00,47.9,46.8,30.30,NE,37,7.0,12.0,96,0.00,,---,0.00,VWS V14.00,2013-02-07 04:19:00,
2013-02-06 23:24:00,47.8,46.7,30.30,NNE,30,10.0,12.0,96,0.00,,---,0.00,VWS V14.00,2013-02-07 04:24:00,
2013-02-06 23:29:00,47.8,46.7,30.30,NE,37,11.0,12.0,96,0.00,,---,0.00,VWS V14.00,2013-02-07 04:29:00,
2013-02-06 23:34:00,47.8,46.7,30.30,NE,36,7.0,10.0,96,0.00,,---,0.00,VWS V14.00,2013-02-07 04:34:00,
2013-02-06 23:39:00,47.7,46.6,30.31,NE,35,5.0,12.0,96,0.00,,---,0.00,VWS V14.00,2013-02-07 04:39:00,
2013-02-06 23:44:00,47.7,46.6,30.31,NNE,31,7.0,12.0,96,0.00,,---,0.00,VWS V14.00,2013-02-07 04:44:00,
2013-02-06 23:49:00,47.7,46.6,30.31,NNE,27,8.0,12.0,96,0.00,,---,0.00,VWS V14.00,2013-02-07 04:49:00,
2013-02-06 23:54:00,47.6,46.5,30.30,NE,41,7.0,12.0,96,0.00,,---,0.00,VWS V14.00,2013-02-07 04:54:00,
2013-02-06 23:59:00,47.6,46.5,30.30,NNE,28,4.0,12.0,96,0.00,,---,0.00,VWS V14.00,2013-02-07 04:59:00,